Change the Weather History Date:

Thursday, August 21, 2014

  Actual Average Record
Temperature  
Mean Temperature 78 °F -  
Max Temperature 85 °F 76 °F 93 °F (2006)
Min Temperature 71 °F 63 °F 66 °F (1996)
Cooling Degree Days 13    
Growing Degree Days 28 (Base 50)    
Moisture  
Dew Point 67 °F    
Average Humidity 66    
Maximum Humidity 83    
Minimum Humidity 45    
Precipitation  
Precipitation 0.00 in - - ()
Sea Level Pressure  
Sea Level Pressure 29.98 in    
Wind  
Wind Speed 6 mph ()    
Max Wind Speed 10 mph    
Max Gust Speed -    
Visibility 6.4 miles    
Events      
Averages and records for this station are not official NWS values.
T = Trace of Precipitation, MM = Missing Value Source: Averaged Metar Reports

Daily Weather History Graph

Daily Weather History Graph

Search for Another Location

Airport or City:

Trip Planner

Search our weather history database for the weather conditions in past years. The results will help you decide how hot, cold, wet, or windy it might be!

Date:

Astronomy

Aug. 21, 2014 Rise Set
Actual Time 6:20 AM EEST 7:54 PM EEST
Civil Twilight 5:51 AM EEST 8:23 PM EEST
Nautical Twilight 5:16 AM EEST 8:58 PM EEST
Astronomical Twilight 4:38 AM EEST 9:35 PM EEST
Moon 2:32 AM EEST (8/21) 5:10 PM EEST (8/21)
Length of Visible Light 14h 32m
Length of Day
13h 34m
Waning Crescent, 15% of the Moon is Illuminated
Aug 21
Waning Crescent
Aug 25
New
Sep 2
First Quarter
Sep 9
Full
Sep 16
Last Quarter

Hourly Weather History & Observations

Time (EEST) Temp. Heat Index Dew Point Humidity Pressure Visibility Wind Dir Wind Speed Gust Speed Precip Events Conditions
12:00 AM 76 °F - 67 °F 68% 29.99 in 6 mi ENE 8.1 mph - -  
12:20 AM 75.2 °F - 68.0 °F 78% 29.98 in - ENE 4.6 mph - N/A   Clear
12:50 AM 77.0 °F - 68.0 °F 74% 29.98 in - Variable 6.9 mph - N/A   Clear
1:20 AM 77.0 °F - 68.0 °F 74% 29.98 in - Variable 8.1 mph - N/A   Clear
1:50 AM 77.0 °F - 66.2 °F 69% 29.98 in - Variable 5.8 mph - N/A   Clear
2:20 AM 75.2 °F - 66.2 °F 73% 29.98 in - Variable 4.6 mph - N/A   Clear
2:50 AM 75.2 °F - 66.2 °F 73% 29.98 in - NNE 4.6 mph - N/A   Clear
3:00 AM 75 °F - 67 °F 68% 29.99 in 6 mi NNE 4.6 mph - -  
3:20 AM 75.2 °F - 68.0 °F 78% 29.98 in - Variable 4.6 mph - N/A   Clear
3:50 AM 75.2 °F - 66.2 °F 73% 29.98 in - ENE 4.6 mph - N/A   Clear
4:20 AM 75.2 °F - 68.0 °F 78% 29.98 in - NE 4.6 mph - N/A   Clear
4:50 AM 71.6 °F - 66.2 °F 83% 29.98 in - North 3.5 mph - N/A   Clear
5:20 AM 73.4 °F - 68.0 °F 83% 29.98 in - NNE 4.6 mph - N/A   Clear
5:50 AM 71.6 °F - 66.2 °F 83% 29.98 in - North 4.6 mph - N/A   Clear
6:00 AM 72 °F - 66 °F 75% 29.99 in 6 mi North 4.6 mph - -  
6:20 AM 73.4 °F - 68.0 °F 83% 29.98 in - NNE 4.6 mph - N/A   Clear
6:50 AM 75.2 °F - 68.0 °F 78% 29.98 in - NNE 5.8 mph - N/A   Clear
7:20 AM 75.2 °F - 68.0 °F 78% 29.98 in - NE 4.6 mph - N/A   Clear
7:50 AM 77.0 °F - 68.0 °F 74% 29.98 in - East 4.6 mph - N/A   Clear
8:20 AM 77.0 °F - 68.0 °F 74% 29.98 in 6.2 mi ESE 5.8 mph - N/A   Partly Cloudy
8:50 AM 77.0 °F - 66.2 °F 69% 30.01 in 6.2 mi ESE 5.8 mph - N/A   Partly Cloudy
9:00 AM 78 °F - 67 °F 60% 30.00 in 6 mi ESE 5.8 mph - -   Scattered Clouds
9:20 AM 78.8 °F - 68.0 °F 69% 30.01 in 6.2 mi SE 9.2 mph - N/A   Scattered Clouds
9:50 AM 78.8 °F - 68.0 °F 69% 30.01 in 6.2 mi ESE 8.1 mph - N/A   Scattered Clouds
10:20 AM 78.8 °F - 66.2 °F 65% 30.01 in 6.2 mi SE 8.1 mph - N/A   Scattered Clouds
10:50 AM 80.6 °F 83.2 °F 68.0 °F 65% 30.01 in 6.2 mi SSE 9.2 mph - N/A   Scattered Clouds
11:20 AM 80.6 °F 83.2 °F 68.0 °F 65% 30.01 in 6.2 mi South 9.2 mph - N/A   Scattered Clouds
11:50 AM 80.6 °F 83.2 °F 68.0 °F 65% 30.01 in 6.2 mi South 9.2 mph - N/A   Scattered Clouds
12:00 PM 80 °F - 68 °F 58% 30.00 in 6 mi South 9.2 mph - -   Partly Cloudy
12:20 PM 80.6 °F 83.2 °F 68.0 °F 65% 30.01 in 6.2 mi SSW 8.1 mph - N/A   Scattered Clouds
12:50 PM 80.6 °F 83.2 °F 68.0 °F 65% 30.01 in 6.2 mi SSW 6.9 mph - N/A   Partly Cloudy
1:20 PM 82.4 °F 85.4 °F 68.0 °F 62% 30.01 in 6.2 mi SSW 6.9 mph - N/A   Partly Cloudy
1:50 PM 80.6 °F 83.2 °F 68.0 °F 65% 30.01 in 6.2 mi SW 8.1 mph - N/A   Partly Cloudy
2:20 PM 80.6 °F 83.2 °F 68.0 °F 65% 30.01 in 6.2 mi SW 10.4 mph - N/A   Partly Cloudy
2:50 PM 80.6 °F 83.9 °F 69.8 °F 70% 30.01 in 6.2 mi SW 10.4 mph - N/A   Partly Cloudy
3:00 PM 80 °F - 69 °F 62% 30.00 in 6 mi SW 10.4 mph - -   Scattered Clouds
3:20 PM 80.6 °F 83.2 °F 68.0 °F 65% 29.98 in 6.2 mi SW 9.2 mph - N/A   Partly Cloudy
3:50 PM 82.4 °F 85.4 °F 68.0 °F 62% 29.98 in 6.2 mi SW 8.1 mph - N/A   Partly Cloudy
4:20 PM 82.4 °F 85.4 °F 68.0 °F 62% 29.98 in 6.2 mi WSW 6.9 mph - N/A   Partly Cloudy
4:50 PM 82.4 °F 85.4 °F 68.0 °F 62% 29.98 in 6.2 mi WSW 6.9 mph - N/A   Partly Cloudy
5:20 PM 82.4 °F 84.6 °F 66.2 °F 58% 29.98 in 6.2 mi SW 5.8 mph - N/A   Partly Cloudy
5:50 PM 82.4 °F 84.6 °F 66.2 °F 58% 29.95 in 6.2 mi SW 5.8 mph - N/A   Partly Cloudy
6:00 PM 82 °F - 64 °F 45% 29.96 in 12 mi SW 5.8 mph - -   Scattered Clouds
6:20 PM 82.4 °F 83.9 °F 64.4 °F 54% 29.95 in - WSW 3.5 mph - N/A   Clear
6:50 PM 84.2 °F 86.6 °F 66.2 °F 55% 29.95 in - SSE 6.9 mph - N/A   Clear
7:20 PM 82.4 °F 84.6 °F 66.2 °F 58% 29.95 in - ESE 6.9 mph - N/A   Clear
7:50 PM 84.2 °F 86.6 °F 66.2 °F 55% 29.95 in - East 6.9 mph - N/A   Clear
8:20 PM 84.2 °F 86.6 °F 66.2 °F 55% 29.95 in - East 8.1 mph - N/A   Clear
8:50 PM 82.4 °F 84.6 °F 66.2 °F 58% 29.95 in - East 8.1 mph - N/A   Clear
9:00 PM 82 °F - 66 °F 49% 29.96 in 6 mi East 8.1 mph - -  
9:20 PM 82.4 °F 84.6 °F 66.2 °F 58% 29.95 in - East 6.9 mph - N/A   Clear
9:50 PM 80.6 °F 82.7 °F 66.2 °F 61% 29.98 in - Variable 5.8 mph - N/A   Clear
10:20 PM 80.6 °F 82.7 °F 66.2 °F 61% 29.98 in - NE 4.6 mph - N/A   Clear
10:50 PM 80.6 °F 82.7 °F 66.2 °F 61% 29.98 in - East 4.6 mph - N/A   Clear
11:20 PM 78.8 °F - 66.2 °F 65% 29.98 in - East 5.8 mph - N/A   Clear
11:50 PM 78.8 °F - 66.2 °F 65% 29.98 in - ENE 3.5 mph - N/A   Clear